Zurück zum Katalog

SL-16 R/B

AktivLEO
NORAD 19650·ROCKET BODY·🇷🇺 Russia

Gestartet Nov 23, 1988 von Baikonur Cosmodrome

Loading…

Nächste Überflüge (nächste 24 Stunden)

TLE

AktuellSource: Space-Track

Epoche: Sep 14, 2026, 13:39 UTC

1 19650U 88102B   26257.56937030  .00000294  00000-0  17230-3 0  9996
2 19650  70.9979 114.0698 0012117  81.6881 278.5616 14.16172984953631

Verfolge SL-16 R/B in Echtzeit mit AllMySat

Download on the App Store